Location: Park Creek Village Mobile Home Park
(38.2885°N, 122.4714°W)
Time: 10:34:39
(UTC+00:00)

CZ-4 R/B - Pass Details

Date: 14 December 2019
Orbit: 533 x 598 km, 97.7° (Epoch: 21 January)

Event Time Altitude Azimuth Distance (km) Brightness Sun altitude
Rises 14:20:53 0° 32° (NNE) 2,714 5.0 -11.1°
Reaches altitude 10° 14:23:42 10° 55° (NE) 1,827 4.4 -10.6°
Maximum altitude 14:26:11 16° 94° (E) 1,485 4.7 -10.1°
Drops below altitude 10° 14:28:40 10° 133° (SE) 1,841 5.3 -9.7°
Sets 14:31:31 0° 155° (SSE) 2,746 5.7 -9.2°
